LXSTR ELLX-ELLX

Flight info

Callsign LXSTR
Flight time 0h 28m
Altitude 2500
Route VFR
Aircraft STAR/L-SDFGHIRWY/S

Departure

Time 2026-05-04 15:11
Airport Luxembourg-Findel International Airport (ELLX)

Arrival

Time 2026-05-04 15:40
Airport Luxembourg-Findel International Airport (ELLX)
Time Latitude Longitude Altitude Speed Heading
2026-05-04 14:25 49.63239 6.21805 1192 ft 0 kts 253°
2026-05-04 15:05 49.63223 6.21755 1192 ft 8 kts 243°
2026-05-04 15:05 49.63184 6.21733 1192 ft 6 kts 144°
2026-05-04 15:06 49.63118 6.21756 1193 ft 14 kts 212°
2026-05-04 15:06 49.63055 6.21577 1193 ft 23 kts 242°
2026-05-04 15:06 49.62978 6.21330 1193 ft 22 kts 246°
2026-05-04 15:07 49.62840 6.20878 1192 ft 22 kts 244°
2026-05-04 15:07 49.62767 6.20700 1192 ft 22 kts 225°
2026-05-04 15:07 49.62651 6.20556 1193 ft 26 kts 226°
2026-05-04 15:07 49.62511 6.20303 1194 ft 34 kts 234°
2026-05-04 15:08 49.62387 6.19986 1194 ft 34 kts 240°
2026-05-04 15:08 49.62268 6.19664 1193 ft 36 kts 240°
2026-05-04 15:08 49.62141 6.19320 1192 ft 36 kts 240°
2026-05-04 15:08 49.62028 6.19019 1192 ft 25 kts 240°
2026-05-04 15:09 49.61959 6.18841 1192 ft 15 kts 235°
2026-05-04 15:09 49.61894 6.18751 1193 ft 14 kts 214°
2026-05-04 15:09 49.61802 6.18738 1197 ft 15 kts 146°
2026-05-04 15:10 49.61781 6.18835 1199 ft 0 kts 57°
2026-05-04 15:10 49.61786 6.18847 1199 ft 12 kts 60°
2026-05-04 15:11 49.61913 6.19193 1199 ft 62 kts 60°
2026-05-04 15:11 49.62207 6.19980 1207 ft 107 kts 60°
2026-05-04 15:11 49.62627 6.21093 1533 ft 133 kts 61°
2026-05-04 15:11 49.63117 6.22393 2054 ft 149 kts 63°
2026-05-04 15:12 49.63693 6.23930 2109 ft 183 kts 64°
2026-05-04 15:12 49.64225 6.25862 2007 ft 208 kts 80°
2026-05-04 15:12 49.64172 6.28091 2034 ft 214 kts 113°
2026-05-04 15:12 49.63185 6.29747 2134 ft 212 kts 155°
2026-05-04 15:13 49.61731 6.29911 2066 ft 219 kts 198°
2026-05-04 15:13 49.60660 6.28241 1983 ft 226 kts 233°
2026-05-04 15:13 49.59808 6.26215 1963 ft 227 kts 237°
2026-05-04 15:13 49.59089 6.24054 1976 ft 225 kts 246°
2026-05-04 15:14 49.58614 6.21755 2011 ft 225 kts 253°
2026-05-04 15:14 49.58297 6.19406 1978 ft 228 kts 258°
2026-05-04 15:14 49.58102 6.17126 2081 ft 195 kts 261°
2026-05-04 15:14 49.58136 6.15229 2124 ft 169 kts 287°
2026-05-04 15:15 49.58953 6.14132 2056 ft 157 kts 348°
2026-05-04 15:15 49.59959 6.14483 1978 ft 149 kts 40°
2026-05-04 15:15 49.60584 6.15608 1731 ft 131 kts 61°
2026-05-04 15:16 49.61468 6.17997 1370 ft 123 kts 62°
2026-05-04 15:16 49.61891 6.19130 1215 ft 117 kts 62°
2026-05-04 15:16 49.62662 6.21208 1434 ft 131 kts 63°
2026-05-04 15:17 49.63141 6.22470 2095 ft 139 kts 62°
2026-05-04 15:17 49.64370 6.25673 2426 ft 211 kts 43°
2026-05-04 15:17 49.65890 6.26362 2064 ft 243 kts
2026-05-04 15:18 49.67599 6.26606 1898 ft 256 kts
2026-05-04 15:18 49.69358 6.26337 2003 ft 250 kts 346°
2026-05-04 15:18 49.70991 6.25557 2042 ft 240 kts 337°
2026-05-04 15:19 49.73866 6.23300 2032 ft 234 kts 332°
2026-05-04 15:19 49.75309 6.22200 2192 ft 223 kts 333°
2026-05-04 15:19 49.78188 6.20463 2336 ft 247 kts 351°
2026-05-04 15:20 49.79965 6.20258 2505 ft 258 kts 359°
2026-05-04 15:20 49.81766 6.20211 2353 ft 244 kts 360°
2026-05-04 15:20 49.83271 6.20183 2802 ft 195 kts 359°
2026-05-04 15:20 49.84644 6.20029 3295 ft 203 kts 349°
2026-05-04 15:21 49.86112 6.19434 3392 ft 233 kts 343°
2026-05-04 15:21 49.87771 6.18947 3084 ft 265 kts 359°
2026-05-04 15:21 49.91372 6.19850 3275 ft 250 kts 13°
2026-05-04 15:22 49.93063 6.20166 3335 ft 243 kts 359°
2026-05-04 15:22 49.94703 6.20074 3364 ft 227 kts 356°
2026-05-04 15:22 49.97665 6.19578 3393 ft 208 kts 338°
2026-05-04 15:23 49.98746 6.18219 3680 ft 206 kts 298°
2026-05-04 15:23 49.99124 6.16055 4184 ft 221 kts 265°
2026-05-04 15:23 49.98632 6.13700 4266 ft 242 kts 234°
2026-05-04 15:23 49.97367 6.11920 4336 ft 253 kts 206°
2026-05-04 15:24 49.94124 6.10809 4480 ft 227 kts 187°
2026-05-04 15:24 49.91063 6.10290 4637 ft 220 kts 186°
2026-05-04 15:25 49.89522 6.10060 4716 ft 224 kts 186°
2026-05-04 15:25 49.87957 6.09831 4796 ft 228 kts 186°
2026-05-04 15:25 49.86380 6.09607 4867 ft 231 kts 186°
2026-05-04 15:26 49.83169 6.09166 5033 ft 230 kts 181°
2026-05-04 15:26 49.81973 6.10380 6139 ft 191 kts 132°
2026-05-04 15:26 49.80869 6.12726 9384 ft 51 kts 132°
2026-05-04 15:27 49.80707 6.13189 8798 ft 108 kts 127°
2026-05-04 15:27 49.80775 6.17363 5920 ft 212 kts 78°
2026-05-04 15:28 49.80182 6.22109 4862 ft 200 kts 104°
2026-05-04 15:28 49.80102 6.24213 4697 ft 195 kts 74°
2026-05-04 15:28 49.81544 6.25649 4770 ft 156 kts 214°
2026-05-04 15:29 49.81473 6.26527 4856 ft 186 kts 351°
2026-05-04 15:30 49.81125 6.22855 5653 ft 164 kts 269°
2026-05-04 15:30 49.81264 6.18080 8343 ft 108 kts 226°
2026-05-04 15:31 49.79690 6.16898 9742 ft 118 kts 211°
2026-05-04 15:31 49.78883 6.16474 10419 ft 137 kts 179°
2026-05-04 15:32 49.77773 6.19965 12969 ft 127 kts 43°
2026-05-04 15:32 49.80067 6.21744 10544 ft 270 kts 26°
2026-05-04 15:33 49.82916 6.22024 5262 ft 319 kts 19°
2026-05-04 15:34 49.85930 6.23243 4601 ft 202 kts 236°
2026-05-04 15:34 49.84951 6.21642 4166 ft 211 kts 222°
2026-05-04 15:34 49.82263 6.19277 3315 ft 227 kts 181°
2026-05-04 15:35 49.79040 6.19242 2942 ft 219 kts 191°
2026-05-04 15:35 49.77669 6.18433 3035 ft 213 kts 208°
2026-05-04 15:35 49.76368 6.17100 2999 ft 237 kts 212°
2026-05-04 15:36 49.73486 6.14372 2988 ft 236 kts 208°
2026-05-04 15:36 49.72029 6.13229 3095 ft 232 kts 205°
2026-05-04 15:36 49.70585 6.12138 3063 ft 238 kts 205°
2026-05-04 15:37 49.69077 6.10976 3019 ft 240 kts 205°
2026-05-04 15:37 49.67602 6.09834 3009 ft 241 kts 206°
2026-05-04 15:37 49.66073 6.08792 2975 ft 241 kts 195°
2026-05-04 15:37 49.64478 6.09172 3009 ft 239 kts 147°
2026-05-04 15:38 49.63266 6.10778 2999 ft 215 kts 140°
2026-05-04 15:38 49.62327 6.12391 3017 ft 192 kts 124°
2026-05-04 15:38 49.61806 6.14151 2765 ft 166 kts 117°
2026-05-04 15:38 49.61423 6.15748 2171 ft 149 kts 109°
2026-05-04 15:39 49.61291 6.17178 1881 ft 128 kts 89°
2026-05-04 15:39 49.61635 6.18451 1376 ft 129 kts 60°
2026-05-04 15:39 49.62382 6.20452 1207 ft 82 kts 61°
2026-05-04 15:40 49.62620 6.21063 1212 ft 52 kts 42°
2026-05-04 15:40 49.62837 6.21266 1197 ft 26 kts 28°
2026-05-04 15:40 49.62955 6.21371 1193 ft 15 kts 32°
2026-05-04 15:40 49.63055 6.21580 1193 ft 28 kts 63°
2026-05-04 15:41 49.63135 6.21572 1192 ft 19 kts 268°
2026-05-04 15:41 49.63121 6.21523 1192 ft 0 kts 240°